Weather Roundup
Issued by NWS Chicago, IL

Home | Current Version | Previous Version | Text Only | Print | Product List | Glossary Off
Versions: 1 2 3 4 5 6 7 8 9 10 11 12 13 14 15 16 17 18 19 20 21 22 23 24 25 26 27 28 29 30 31 32 33 34 35 36 37 38 39 40 41 42 43 44 45 46 47 48 49 50

000
NZUS59 KLOT 200808
HRRLOT

CHICAGO AREA WEATHER ROUNDUP
NATIONAL WEATHER SERVICE CHICAGO/ROMEOVILLE IL
300 AM CDT FRI APR 20 2018

NOTE: "FAIR" INDICATES FEW OR NO CLOUDS BELOW 12,000 FEET WITH NO
SIGNIFICANT WEATHER AND/OR OBSTRUCTIONS TO VISIBILITY.

* THESE STATIONS ARE NOT UNDER NWS QUALITY CONTROL. THEY ALSO MAY NOT
  REPORT WEATHER SUCH AS PRECIPITATION OR FOG.

ILZ005-006-012>014-019>023-200900-
NORTHEAST ILLINOIS

CITY           SKY/WX    TMP DP  RH WIND       PRES   REMARKS
OHARE            N/A     37  23  56 W5        30.44R
MIDWAY           N/A     38  24  57 CALM      30.45R
AURORA           N/A     27  24  89 W3        30.45S
LANSING*         N/A     30  29  96 CALM      30.45R
JOLIET*          N/A     30  28  91 CALM      30.46R
WAUKEGAN         N/A     34  24  67 NW5       30.43S WCI  30
DUPAGE AIRPORT   N/A     30  24  78 N3        30.44R
WHEELING         N/A     33  26  75 CALM      30.46R
KANKAKEE*        N/A     31  24  74 W3        30.46R
MORRIS*          N/A     31  24  74 CALM      30.45S
LEWIS AIRPORT*   N/A     32  26  77 CALM      30.45S
$$

WIZ051-052-058>065-066-070>072-200900-
SOUTHEAST WISCONSIN

CITY           SKY/WX    TMP DP  RH WIND       PRES   REMARKS
MILWAUKEE        N/A     38  25  59 NW5       30.44R
KENOSHA*         N/A     34  24  67 W5        30.43S WCI  30
RACINE*          N/A     35  25  66 W6        30.45R WCI  30
BURLINGTON       N/A     32  23  67 CALM      30.44S
WAUKESHA         N/A     32  23  69 W9        30.45R WCI  24
WEST BEND        N/A     32  23  69 CALM      30.43R
$$

INZ001>003-010>013-019-020-200900-
NORTHWEST INDIANA

CITY           SKY/WX    TMP DP  RH WIND       PRES   REMARKS
GARY*            N/A     31  31 100 CALM      30.45R FOG
MICHIGAN CITY* NOT AVBL
RENSSELAER*    NOT AVBL
VALPARAISO       N/A     36  26  67 CALM      30.44R
$$

LMZ740>746-200900-
SOUTHERN LAKE MICHIGAN

STATION/POSITION TIME  SKY/WX   TEMP WIND        PRES    VSBY
                                AIR  DIR/SP/G
                 (UTC)          (F)  (DEG/KT/KT) (MB)    (MI)
HARRISON CRIB    0740            43  300/  8/  8   N/A
BURNHAM HARBOR   0800            43  270/  5/  7   N/A
CALUMET HARBOR   0748            38  260/  2/  4 1030.2R
BURNS HARBOR     0723            41  270/  3/  5 1031.2S
MICHIGAN CITY    0740            39  350/  4/  4   N/A
$$

ABBREVIATIONS USED IN REMARKS
   TC - TEMPERATURE IN CELSIUS
  WCI - WIND CHILL INDEX
   HX - HEAT INDEX
  VSB - VISIBILITY
$$



USA.gov is the U.S. government's official web portal to all federal, state and local government web resources and services.